This is the latest recevied weather packets stored in our database for station/object N3SBK. If no packets are shown the sender has not sent any weather packets the latest 10 day(s).
| Time | Temp. | Humidity | Pressure | Rain* | Wind** | Luminosity | Snow |
|---|---|---|---|---|---|---|---|
| 1787366894 | 17.22° C | 84% | 1009.6 hPa | 0 mm | - | 0 W/m² | - |
| 1787366589 | 17.22° C | 83% | 1009.6 hPa | 0 mm | - | 0 W/m² | - |
| 1787366288 | 17.78° C | 84% | 1009.6 hPa | 0 mm | - | 0 W/m² | - |
| 1787365985 | 17.78° C | 81% | 1009.9 hPa | 0 mm | - | 0 W/m² | - |
| 1787365680 | 18.33° C | 80% | 1009.7 hPa | 0 mm | - | 0 W/m² | - |
| 1787365375 | 18.33° C | 80% | 1009.6 hPa | 0 mm | - | 0 W/m² | - |
| 1787365070 | 18.33° C | 80% | 1009.4 hPa | 0 mm | - | 0 W/m² | - |
| 1787364767 | 18.33° C | 79% | 1009.3 hPa | 0 mm | - | 0 W/m² | - |
| 1787364462 | 18.89° C | 80% | 1009.4 hPa | 0 mm | - | 0 W/m² | - |
| 1787364158 | 18.89° C | 77% | 1009.6 hPa | 0 mm | - | 0 W/m² | - |
| 1787363857 | 18.89° C | 80% | 1009.5 hPa | 0 mm | - | 0 W/m² | - |
| 1787363552 | 18.89° C | 79% | 1009.6 hPa | 0 mm | - | 0 W/m² | - |
| 1787363251 | 19.44° C | 77% | 1009.4 hPa | 0 mm | - | 0 W/m² | - |
| 1787362947 | 19.44° C | 77% | 1009.6 hPa | 0 mm | - | 0 W/m² | - |
| 1787362642 | 19.44° C | 77% | 1009.3 hPa | 0 mm | - | 0 W/m² | - |
| 1787362338 | 19.44° C | 77% | 1009.5 hPa | 0 mm | - | 0 W/m² | - |
| 1787362036 | 20° C | 74% | 1009.5 hPa | 0 mm | - | 0 W/m² | - |
| 1787361732 | 20° C | 71% | 1009.5 hPa | 0 mm | - | 0 W/m² | - |
| 1787361431 | 20° C | 72% | 1009.4 hPa | 0 mm | - | 0 W/m² | - |
| 1787361127 | 20° C | 72% | 1009.5 hPa | 0 mm | - | 0 W/m² | - |
| 1787360822 | 20° C | 72% | 1009.5 hPa | 0 mm | - | 0 W/m² | - |
| 1787360521 | 20° C | 71% | 1009.7 hPa | 0 mm | - | 0 W/m² | - |
| 1787360216 | 20° C | 72% | 1009.7 hPa | 0 mm | - | 0 W/m² | - |
| 1787359911 | 20° C | 72% | 1009.6 hPa | 0 mm | - | 0 W/m² | - |
| 1787359607 | 20° C | 73% | 1009.7 hPa | 0 mm | - | 0 W/m² | - |
* Rain latest hour (hover to see other rain measurements)
** Current wind speed in m/s (hover to see current wind gust speed)